Weather observations for the past three days for
Kirksville, Kirksville Regional Airport
| Date | Time (cdt) | Wind (mph) | Vis. (mi.) | Weather | Sky Cond. | Temperature (ºF) | Relative Humidity | Wind Chill (°F) | Heat Index (°F) | Pressure | Precipitation (in) | ||||||
|---|---|---|---|---|---|---|---|---|---|---|---|---|---|---|---|---|---|
| Air | Dwpt | 6 hour | altimeter (in) | sea level (mb) | 1 hr | 3 hr | 6 hr | ||||||||||
| Max. | Min. | ||||||||||||||||
| 06 | 02:55 | N 7 | 10.00 | A Few Clouds | FEW120 | 46.9 | 30.9 | 54% | 44 | 29.94 | 1014.1 | ||||||
| 06 | 01:55 | NW 6 | 10.00 | Mostly Cloudy | BKN110 | 48 | 30.9 | 52% | 46 | 29.94 | 1014.3 | ||||||
| 06 | 00:55 | NW 7 | 10.00 | Mostly Cloudy | BKN100 BKN120 | 48.9 | 34 | 52 | 46.9 | 56% | 46 | 29.93 | 1014.0 | ||||
| 05 | 23:55 | NW 6 | 10.00 | Overcast | OVC100 | 48 | 39 | 71% | 46 | 29.91 | 1013.5 | ||||||
| 05 | 22:55 | W 3 | 10.00 | Mostly Cloudy | BKN100 | 46.9 | 39 | 74% | 29.9 | 1013.1 | |||||||
| 05 | 21:55 | SW 5 | 10.00 | Overcast | BKN075 OVC095 | 48.9 | 39.9 | 71% | 48 | 29.89 | 1012.7 | ||||||
| 05 | 20:55 | Calm | 10.00 | Overcast | OVC095 | 48.9 | 43 | 80% | 29.88 | 1012.5 | |||||||
| 05 | 19:55 | Calm | 10.00 | Overcast | OVC090 | 50 | 43 | 77% | 29.87 | 1012.0 | |||||||
| 05 | 18:55 | Calm | 10.00 | Overcast | OVC085 | 52 | 37 | 55 | 51.1 | 57% | 29.87 | 1011.9 | |||||
| 05 | 17:55 | NE 6 | 10.00 | Overcast | OVC085 | 52 | 39 | 61% | 29.86 | 1011.6 | |||||||
| 05 | 16:55 | N 6 | 10.00 | Overcast | OVC085 | 53.1 | 34 | 48% | 29.86 | 1011.6 | |||||||
| 05 | 15:55 | N 9 | 10.00 | Overcast | OVC085 | 54 | 34 | 47% | 29.87 | 1011.8 | |||||||
| 05 | 14:55 | NW 5 | 10.00 | Overcast | OVC085 | 55 | 35.1 | 47% | 29.88 | 1012.1 | |||||||
| 05 | 13:55 | N 6 | 10.00 | Mostly Cloudy | BKN095 | 52 | 34 | 50% | 29.89 | 1012.5 | |||||||
| 05 | 12:55 | Vrbl 5 | 10.00 | Overcast | OVC085 | 52 | 35.1 | 52 | 46.9 | 53% | 29.9 | 1013.1 | |||||
| 05 | 11:55 | N 6 | 10.00 | Mostly Cloudy | BKN080 | 51.1 | 36 | 56% | 29.91 | 1013.2 | |||||||
| 05 | 10:55 | N 3 | 10.00 | Overcast | OVC080 | 50 | 37.9 | 63% | 29.9 | 1012.8 | |||||||
| 05 | 09:55 | NW 3 | 10.00 | Overcast | OVC075 | 48.9 | 37.9 | 66% | 29.9 | 1012.6 | |||||||
| 05 | 08:55 | NE 7 | 10.00 | Overcast | OVC080 | 48 | 39 | 71% | 45 | 29.86 | 1011.1 | ||||||
| 05 | 07:55 | NE 6 | 10.00 | Overcast | OVC090 | 48 | 39.9 | 74% | 46 | 29.83 | 1010.2 | ||||||
| 05 | 06:55 | E 5 | 10.00 | Overcast | OVC080 | 46.9 | 39 | 55 | 46.9 | 74% | 45 | 29.84 | 1010.6 | 0.02 | |||
| 05 | 05:55 | NE 6 | 10.00 | Overcast | OVC080 | 48 | 39 | 71% | 46 | 29.86 | 1011.1 | 0.01 | |||||
| 05 | 04:55 | NE 3 | 10.00 | Light Rain | BKN070 OVC085 | 48 | 39.9 | 74% | 29.85 | 1010.7 | 0.01 | ||||||
| 05 | 03:55 | N 8 | 10.00 | Overcast | OVC085 | 52 | 35.1 | 53% | 29.81 | 1009.3 | |||||||
| 05 | 02:55 | N 14 G 24 | 10.00 | Overcast | OVC085 | 54 | 34 | 47% | 29.77 | 1007.9 | |||||||
| 05 | 01:55 | N 7 | 10.00 | Overcast | OVC080 | 54 | 35.1 | 49% | 29.77 | 1008.1 | |||||||
| 05 | 00:55 | N 9 | 10.00 | Fair | CLR | 54 | 34 | 75.9 | 54 | 47% | 29.75 | 1007.5 | |||||
| 04 | 23:55 | N 16 G 23 | 10.00 | Fair | CLR | 57.9 | 33.1 | 39% | 29.7 | 1005.5 | |||||||
| 04 | 22:55 | N 15 G 29 | 10.00 | Fair | CLR | 63 | 36 | 37% | 29.67 | 1004.5 | |||||||
| 04 | 21:55 | N 13 | 10.00 | Fair | CLR | 64.9 | 41 | 42% | 29.65 | 1003.9 | |||||||
| 04 | 20:55 | W 5 | 10.00 | A Few Clouds | FEW080 FEW100 | 70 | 52 | 53% | 29.59 | 1001.9 | |||||||
| 04 | 19:55 | W 5 | 10.00 | Mostly Cloudy | SCT080 BKN090 BKN110 | 72 | 53.1 | 52% | 29.56 | 1000.9 | |||||||
| 04 | 18:55 | SW 7 | 10.00 | A Few Clouds | FEW095 | 75.9 | 51.1 | 80.1 | 75 | 42% | 78 | 29.55 | 1000.5 | ||||
| 04 | 17:55 | W 9 G 18 | 10.00 | Fair | CLR | 79 | 52 | 39% | 79 | 29.56 | 1000.8 | ||||||
| 04 | 16:55 | SW 6 G 21 | 10.00 | Fair | CLR | 79 | 53.1 | 41% | 79 | 29.57 | 1000.9 | ||||||
| 04 | 15:55 | SW 7 | 10.00 | Fair | CLR | 79 | 52 | 39% | 79 | 29.57 | 1001.1 | ||||||
| 04 | 14:55 | S 8 | 10.00 | Fair | CLR | 78.1 | 53.1 | 42% | 79 | 29.59 | 1001.7 | ||||||
| 04 | 13:55 | SW 13 G 21 | 10.00 | Fair | CLR | 77 | 52 | 42% | 78 | 29.6 | 1002.2 | ||||||
| 04 | 12:55 | W 13 G 22 | 10.00 | Fair | CLR | 75.9 | 52 | 75.9 | 54 | 43% | 78 | 29.6 | 1002.3 | ||||
| 04 | 11:55 | SW 13 | 10.00 | Fair | CLR | 73.9 | 52 | 46% | 29.62 | 1002.8 | |||||||
| 04 | 10:55 | SW 14 G 21 | 10.00 | Fair | CLR | 72 | 51.1 | 48% | 29.62 | 1003.0 | |||||||
| 04 | 09:55 | SW 12 G 24 | 10.00 | Fair | CLR | 70 | 50 | 49% | 29.63 | 1003.2 | |||||||
| 04 | 08:55 | SW 13 G 24 | 10.00 | NULL | NULL | 66 | 51.1 | 59% | 29.64 | 1003.8 | |||||||
| 04 | 07:55 | SW 8 | 10.00 | Fair | CLR | 63 | 51.1 | 65% | 29.65 | 1004.1 | |||||||
| 04 | 06:55 | S 6 | 10.00 | Fair | CLR | 54 | 48.9 | 59 | 50 | 83% | 29.65 | 1004.1 | 0.04 | ||||
| 04 | 05:55 | S 5 | 10.00 | A Few Clouds | FEW110 | 55.9 | 48 | 75% | 29.66 | 1004.2 | |||||||
| 04 | 04:55 | S 3 | 10.00 | A Few Clouds | FEW050 | 55.9 | 46.9 | 72% | 29.69 | 1005.3 | |||||||
| 04 | 03:55 | Calm | 10.00 | A Few Clouds | FEW120 | 53.1 | 50 | 89% | 29.71 | 1005.9 | 0.04 | ||||||
| 04 | 02:55 | Calm | 10.00 | A Few Clouds | FEW120 | 53.1 | 50 | 89% | 29.72 | 1006.3 | |||||||
| 04 | 00:55 | Calm | 10.00 | Thunderstorm Light Rain | FEW060 OVC100 | 53.1 | 51.1 | 69.1 | 52 | 93% | 29.77 | 1008.1 | 0.1 | 0.13 | |||
| 03 | 23:55 | S 7 | 5.00 | Thunderstorm Rain Fog/Mist | FEW050 SCT070 OVC090 | 54 | 51.1 | 90% | 29.77 | 1008.2 | 0.03 | ||||||
| 03 | 22:55 | S 5 | 10.00 | Partly Cloudy | SCT110 | 55.9 | 51.1 | 84% | 29.78 | 1008.6 | |||||||
| 03 | 21:55 | Calm | 10.00 | Fair | CLR | 57.9 | 45 | 62% | 29.79 | 1008.9 | |||||||
| 03 | 20:55 | Calm | 10.00 | NULL | NULL | 57 | 46.9 | 69% | 29.8 | 1009.2 | |||||||
| 03 | 19:55 | NW 3 | 10.00 | Fair | CLR | 66.9 | 43 | 42% | 29.79 | 1008.9 | |||||||
| 03 | 18:55 | W 6 | 10.00 | Fair | CLR | 69.1 | 45 | 72 | 66.9 | 42% | 29.79 | 1009.0 | |||||
| 03 | 17:55 | W 8 | 10.00 | Fair | CLR | 71.1 | 45 | 39% | 29.8 | 1009.1 | |||||||
| 03 | 16:55 | W 12 | 10.00 | Fair | CLR | 71.1 | 44.1 | 38% | 29.8 | 1009.5 | |||||||
| 03 | 15:55 | W 14 G 21 | 10.00 | Fair | CLR | 71.1 | 44.1 | 38% | 29.81 | 1009.8 | |||||||
| 03 | 14:55 | W 15 G 22 | 10.00 | Fair | CLR | 71.1 | 45 | 39% | 29.83 | 1010.4 | |||||||
| 03 | 13:55 | SW 16 G 28 | 10.00 | Fair | CLR | 69.1 | 44.1 | 41% | 29.84 | 1010.8 | |||||||
| 03 | 12:55 | W 13 G 25 | 10.00 | Fair | CLR | 66.9 | 43 | 68 | 46.9 | 42% | 29.87 | 1011.7 | |||||
| 03 | 11:55 | SW 14 G 26 | 10.00 | Fair | CLR | 66 | 42.1 | 42% | 29.88 | 1012.2 | |||||||
| 03 | 10:55 | SW 16 G 30 | 10.00 | Fair | CLR | 62.1 | 39.9 | 44% | 29.88 | 1012.4 | |||||||
| 03 | 09:55 | SW 15 G 26 | 10.00 | Fair | CLR | 57.9 | 37.9 | 48% | 29.92 | 1013.5 | |||||||
| 03 | 08:55 | SW 18 G 29 | 10.00 | Fair | CLR | 54 | 37.9 | 55% | 29.93 | 1013.9 | |||||||
| 03 | 07:55 | SW 17 G 25 | 10.00 | Fair | CLR | 52 | 37 | 57% | 29.94 | 1014.2 | |||||||
| 03 | 06:55 | S 9 | 10.00 | Fair | CLR | 46.9 | 37 | 48 | 43 | 69% | 43 | 29.96 | 1015.1 | ||||
| 03 | 05:55 | S 9 | 10.00 | A Few Clouds | FEW095 | 46 | 35.1 | 66% | 42 | 29.96 | 1015.0 | ||||||
| 03 | 04:55 | S 6 | 10.00 | Fair | CLR | 43 | 35.1 | 74% | 40 | 29.97 | 1015.5 | ||||||
| 03 | 03:55 | S 9 | 10.00 | Fair | CLR | 44.1 | 33.1 | 65% | 40 | 29.99 | 1015.8 | ||||||
| Date | Time (cdt) | Wind (mph) | Vis. (mi.) | Weather | Sky Cond. | Air | Dwpt | Max. | Min. | Relative Humidity | Wind Chill (°F) | Heat Index (°F) | altimeter (in) | sea level (mb) | 1 hr | 3 hr | 6 hr |
| 6 hour | |||||||||||||||||
| Temperature (ºF) | Pressure | Precipitation (in) | |||||||||||||||